[[{"header":{"parameterUnit":"m.s-1","parameterCategory":1,"la1":30.2991,"la2":30.254,"lo1":-89.0895,"lo2":-89.0444,"dy":0.0017,"dx":0.0017,"nx":28,"ny":28,"refTime":"2023-08-26T03:00:00:Z","depth":0,"parameterNumber":2,"parameterNumberName":"U-component_of_WINDS"},"data":[0,0,0,0,0,0,0,0,0,0,0,0,0,0,0,0,0,0,0,0,0,0,0,0,0,0,0,0,0,0,0,0,0,0,0,0,0,0,0,0,0,0,0,0,0,0,0,0,0,0,0,0,0,0,0,0,0,0,0.007,0.0071,0,0.0194,0.0195,0.0196,0.0165,0.0162,0.016,0.0157,0.0291,0.0297,0.0302,0,0,0,0,0,0,0,0,0,0,0,0,0,-0.0186,-0.0182,0.007,0.0071,0.0073,0.0193,0.0195,0.0197,0.0165,0.0162,0.0159,0.0156,0.0289,0.0296,0.0303,0,0,0,0,0,0,0,0,0,0,0,0,0,-0.007,-0.018,0.0069,0.0071,0.0073,0.0193,0.0195,0.0197,0.0166,0.0162,0.0158,0.0155,0.0287,0.0295,0.0304,0.0432,0,0,0.0331,0.0335,0,0,0,0,0,0,0,0,-0.0077,-0.006,0.007,0.0071,0.0073,0.016,0.0154,0.0276,0.0167,0.0131,0.0157,0.0153,0.0251,0.0262,0.0294,0.0438,0.0444,0.0331,0.0337,0.0341,0.0343,0,0,0,0,0,0,0,-0.0085,-0.0066,0.0119,0.0072,0.0074,0.0069,0.0081,0.0177,0.021,0.0134,0.0131,0.0146,0.0251,0.0285,0.0297,0.0446,0.0331,0.0339,0.0344,0.0348,0.0705,0.0709,0,0,0,0,0,0,-0.0095,-0.0073,0.0115,0.0123,-0.0013,0.0076,0.009,0.0136,0.0209,0.0216,0.0149,0.0144,0.0272,0.0287,0.0301,0.0459,0.0341,0.0349,0.0354,0.0701,0.0706,0.0711,0,0,0,0,0,0,-0.0101,-0.0078,0.011,0.0025,0.0048,0.0084,0.0136,0.014,0.0174,0.0221,0.0227,0.0178,0.027,0.0289,0.04,0.0463,0.0353,0.0361,0.0696,0.0703,0.0709,0.0773,0,0,0,0,0,0,-0.0108,-0.008,-0.0033,0.0026,0.0053,0.0205,0.014,0.0145,0.0189,0.0184,0.0249,0.0257,0.0268,0.0387,0.0409,0.0473,0.0368,0.0691,0.0699,0.0707,0.0766,0.0781,0.0794,0,0,0,0,0,-0.0117,-0.0019,-0.003,-0.0007,0.0112,0.0208,0.0224,0.0234,0.0194,0.0243,0.0273,0.0255,0.0452,0.0399,0.0423,0.0491,0.0687,0.0697,0.0706,0.0759,0.0778,0.0793,0,0,0,0,0,0,-0.0069,-0.0011,-0.0023,0.0096,0.0147,0.0203,0.0265,0.0253,0.0318,0.031,0.0322,0.0337,0.0451,0.0481,0.0421,0.062,0.0564,0.0579,0.0596,0.0614,0.0628,0.062,0.0375,0,0,0,0,0,-0.0045,0.0026,0.0073,0.0174,0.02,0.0228,0.0271,0.0274,0.0328,0.035,0.0388,0.0444,0.0519,0.0568,0.0639,0.0769,0.0785,0.0828,0.0842,0.0853,0.0867,0.0941,0.0962,0.0742,0.0742,0.0742,0,0,0.0007,0.0047,0.0091,0.0185,0.0225,0.0301,0.0247,0.0329,0.0387,0.0363,0.0471,0.0501,0.0564,0.0686,0.0741,0.0715,0.0931,0.0865,0.0874,0.0882,0.0953,0.0974,0.0993,0.0749,0.0747,0.0746,0,0,0.0139,0.0175,0.0265,0.0306,0.0366,0.0384,0.0406,0.0464,0.0482,0.059,0.0575,0.0644,0.0772,0.0818,0.0858,0.101,0.0997,0.1033,0.1108,0.1181,0.1198,0.1214,0.1271,0.1291,0.1046,0.1046,0.1046,0,0.0196,0.0308,0.0313,0.0397,0.044,0.042,0.0513,0.0553,0.0635,0.0667,0.0635,0.0796,0.0837,0.0971,0.1008,0.104,0.1068,0.1027,0.1195,0.121,0.1225,0.128,0.1301,0.105,0.105,0.1049,0.1049,0,0.0376,0.0454,0.052,0.0598,0.0648,0.0736,0.0757,0.0808,0.0807,0.0829,0.0941,0.0989,0.1071,0.1102,0.1102,0.1238,0.122,0.1191,0.1136,0.125,0.1302,0.1323,0.1056,0.1055,0.1054,0.1052,0,0,0.0544,0.0624,0.0648,0.0684,0.075,0.0812,0.09,0.0978,0.1024,0.1081,0.1158,0.1266,0.1241,0.1287,0.1292,0.1355,0.1477,0.132,0.1321,0.135,0.1633,0.1656,0.168,0.1467,0.1471,0.1474,0.1628,0,0.0685,0.0838,0.0846,0.0987,0.1061,0.1044,0.1121,0.1172,0.1195,0.1264,0.129,0.1368,0.1327,0.1355,0.1417,0.1449,0.1534,0.1437,0.1542,0.1546,0.1529,0.1706,0.1731,0.1874,0.1648,0.1652,0.1654,0,0.087,0.0932,0.108,0.1137,0.1168,0.1238,0.1311,0.1375,0.1434,0.1447,0.1498,0.1495,0.1589,0.1528,0.1659,0.1593,0.1636,0.1659,0.1665,0.1677,0.1609,0.1727,0.192,0.1943,0.1686,0.1683,0.1681,0,0.0982,0.1102,0.1206,0.1237,0.1306,0.1356,0.1387,0.1441,0.1489,0.1554,0.1585,0.1661,0.1703,0.1763,0.1781,0.1734,0.1914,0.1853,0.193,0.193,0.1971,0.1968,0.2176,0.1993,0.1993,0.1993,0.1992,0,0.114,0.1232,0.1258,0.1322,0.1426,0.1435,0.1538,0.1566,0.1615,0.1687,0.1677,0.1745,0.1764,0.1837,0.1852,0.196,0.1979,0.1994,0.1998,0.1997,0.1995,0.2028,0.2019,0.1998,0.1997,0.1996,0.1995,0,0.1283,0.1303,0.1417,0.1472,0.1488,0.1563,0.1612,0.1676,0.1697,0.1789,0.1811,0.1847,0.1932,0.1955,0.2058,0.2068,0.2197,0.2189,0.2177,0.2178,0.2254,0.2248,0.2493,0.2527,0.2319,0.2321,0.2322,0,0.1384,0.1454,0.1517,0.1564,0.1597,0.1672,0.172,0.1733,0.1784,0.1856,0.1912,0.1996,0.2063,0.2201,0.2238,0.2317,0.2314,0.2394,0.2326,0.2323,0.2319,0.2316,0.2324,0.2408,0.241,0.2412,0.2413,0,0.1563,0.157,0.1638,0.1711,0.1768,0.1827,0.1883,0.1922,0.1943,0.2001,0.2087,0.214,0.2244,0.2329,0.2409,0.2444,0.2434,0.2434,0.2456,0.2458,0.2449,0.2458,0.2216,0.2429,0.2427,0.2426,0.2425,0.2425,0.169,0.1753,0.1807,0.1885,0.1928,0.1981,0.2044,0.2074,0.2145,0.223,0.2233,0.2328,0.2387,0.2493,0.2533,0.2609,0.2586,0.2617,0.2626,0.2635,0.2643,0.2434,0.2623,0.2623,0.2623,0.2622,0.2622,0,0.1871,0.1905,0.1976,0.2055,0.2116,0.2098,0.216,0.2214,0.2296,0.2351,0.2417,0.2518,0.26,0.2643,0.2726,0.2779,0.2777,0.2801,0.2798,0.2807,0.2657,0.2631,0.2801,0.2801,0.2801,0.2801,0.2801,0.2801,0.1973,0.2079,0.2092,0.2221,0.2255,0.2346,0.2383,0.2433,0.2477,0.2589,0.2657,0.2683,0.2735,0.2821,0.2897,0.2907,0.294,0.2967,0.2976,0.2836,0.2818,0.28,0.2776,0.2974,0.2974,0.312,0.3121,0.3122]},{"header":{"parameterUnit":"m.s-1","parameterCategory":1,"la1":30.2991,"la2":30.254,"lo1":-89.0895,"lo2":-89.0444,"dy":0.0017,"dx":0.0017,"nx":28,"ny":28,"refTime":"2023-08-26T03:00:00:Z","depth":0,"parameterNumber":3,"parameterNumberName":"V-component_of_WINDS"},"data":[0,0,0,0,0,0,0,0,0,0,0,0,0,0,0,0,0,0,0,0,0,0,0,0,0,0,0,0,0,0,0,0,0,0,0,0,0,0,0,0,0,0,0,0,0,0,0,0,0,0,0,0,0,0,0,0,0,0,-1.4788,-1.4787,0,-1.4679,-1.4677,-1.4676,-1.4728,-1.473,-1.4733,-1.4736,-1.4619,-1.4613,-1.4607,0,0,0,0,0,0,0,0,0,0,0,0,0,-1.504,-1.5035,-1.4788,-1.4787,-1.4786,-1.4679,-1.4677,-1.4676,-1.4727,-1.4731,-1.4734,-1.4737,-1.462,-1.4614,-1.4607,0,0,0,0,0,0,0,0,0,0,0,0,0,-1.493,-1.5033,-1.4789,-1.4799,-1.4798,-1.4679,-1.4677,-1.4675,-1.4726,-1.4731,-1.4735,-1.4739,-1.4623,-1.4614,-1.4606,-1.4469,0,0,-1.458,-1.4576,0,0,0,0,0,0,0,0,-1.4936,-1.4921,-1.4798,-1.4798,-1.4797,-1.4721,-1.4723,-1.4606,-1.4725,-1.4754,-1.4736,-1.4741,-1.4649,-1.4639,-1.4609,-1.4463,-1.4458,-1.4579,-1.4574,-1.457,-1.4568,0,0,0,0,0,0,0,-1.4944,-1.4926,-1.4745,-1.4797,-1.4796,-1.4808,-1.4797,-1.4701,-1.4679,-1.4751,-1.4755,-1.4742,-1.4649,-1.4617,-1.4606,-1.4457,-1.4579,-1.4572,-1.4566,-1.4563,-1.4197,-1.4192,0,0,0,0,0,0,-1.4952,-1.4932,-1.4748,-1.4742,-1.4879,-1.48,-1.4787,-1.4741,-1.468,-1.4675,-1.4738,-1.4744,-1.4629,-1.4616,-1.4602,-1.444,-1.457,-1.4562,-1.4557,-1.4201,-1.4196,-1.4191,0,0,0,0,0,0,-1.4957,-1.4935,-1.4753,-1.4838,-1.4815,-1.4791,-1.4739,-1.4737,-1.4704,-1.467,-1.4666,-1.4709,-1.4632,-1.4614,-1.4503,-1.4437,-1.4558,-1.455,-1.4207,-1.42,-1.4193,-1.4113,0,0,0,0,0,0,-1.4964,-1.4936,-1.4885,-1.4836,-1.4811,-1.4655,-1.4735,-1.4732,-1.469,-1.4697,-1.4642,-1.4636,-1.4634,-1.4515,-1.4494,-1.4427,-1.4544,-1.4213,-1.4204,-1.4195,-1.4121,-1.4104,-1.4089,0,0,0,0,0,-1.4973,-1.4864,-1.4882,-1.4859,-1.4746,-1.4652,-1.4637,-1.4638,-1.4684,-1.4632,-1.4611,-1.4638,-1.4447,-1.4503,-1.448,-1.4409,-1.4217,-1.4206,-1.4196,-1.4128,-1.4107,-1.409,0,0,0,0,0,0,-1.4903,-1.4858,-1.4877,-1.475,-1.4705,-1.4661,-1.4594,-1.4615,-1.4554,-1.4563,-1.4565,-1.4552,-1.4437,-1.4412,-1.4475,-1.4275,-1.4339,-1.4324,-1.4296,-1.4275,-1.426,-1.4268,-1.4536,0,0,0,0,0,-1.4873,-1.4802,-1.4766,-1.4658,-1.4634,-1.4618,-1.4577,-1.4582,-1.4534,-1.4515,-1.4485,-1.4437,-1.4366,-1.4319,-1.4252,-1.4118,-1.4108,-1.4058,-1.4042,-1.4029,-1.4016,-1.3945,-1.3923,-1.4157,-1.4157,-1.4157,0,0,-1.481,-1.4777,-1.4731,-1.4643,-1.4608,-1.4534,-1.4601,-1.4519,-1.4464,-1.4502,-1.4396,-1.4372,-1.4318,-1.4196,-1.414,-1.4171,-1.3949,-1.4016,-1.4006,-1.3999,-1.3932,-1.391,-1.3891,-1.415,-1.4151,-1.4152,0,0,-1.4658,-1.4625,-1.4533,-1.4498,-1.4445,-1.4436,-1.4414,-1.4367,-1.4354,-1.4248,-1.4275,-1.4209,-1.4087,-1.4049,-1.4013,-1.3849,-1.3873,-1.3827,-1.3744,-1.3675,-1.3657,-1.364,-1.3583,-1.3563,-1.3814,-1.3814,-1.3814,0,-1.4586,-1.4476,-1.4482,-1.4398,-1.4359,-1.4393,-1.4299,-1.4264,-1.4192,-1.4164,-1.42,-1.405,-1.4015,-1.3885,-1.3846,-1.3815,-1.3791,-1.3833,-1.3659,-1.3643,-1.3628,-1.3573,-1.3552,-1.3809,-1.3809,-1.381,-1.381,0,-1.4391,-1.4314,-1.4245,-1.4178,-1.4131,-1.4042,-1.4035,-1.3986,-1.3996,-1.3983,-1.3875,-1.3836,-1.3763,-1.3732,-1.3739,-1.3604,-1.3625,-1.366,-1.3724,-1.36,-1.3549,-1.3528,-1.3801,-1.3803,-1.3805,-1.3806,0,0,-1.4189,-1.4129,-1.4103,-1.4074,-1.4021,-1.3961,-1.3875,-1.3806,-1.3765,-1.3714,-1.3642,-1.354,-1.3573,-1.3533,-1.3536,-1.3476,-1.3351,-1.3519,-1.3517,-1.349,-1.3201,-1.3176,-1.3152,-1.3367,-1.3363,-1.336,-1.3206,0,-1.4034,-1.3885,-1.3889,-1.375,-1.368,-1.3713,-1.3638,-1.3597,-1.3582,-1.3521,-1.3504,-1.3433,-1.3481,-1.3457,-1.3399,-1.3379,-1.3293,-1.339,-1.33,-1.3297,-1.3313,-1.3125,-1.3097,-1.2954,-1.3186,-1.3183,-1.318,0,-1.3832,-1.3779,-1.3633,-1.3593,-1.3564,-1.3497,-1.3435,-1.3376,-1.333,-1.3324,-1.3281,-1.3295,-1.3207,-1.3275,-1.3155,-1.3221,-1.3184,-1.3169,-1.3164,-1.3156,-1.3231,-1.3112,-1.2908,-1.2887,-1.3149,-1.3151,-1.3153,0,-1.3702,-1.3593,-1.3493,-1.3467,-1.3416,-1.3369,-1.3345,-1.3304,-1.3263,-1.3209,-1.3183,-1.3118,-1.3082,-1.3032,-1.3029,-1.3078,-1.2908,-1.2975,-1.2901,-1.2901,-1.2864,-1.2866,-1.2651,-1.2839,-1.2839,-1.284,-1.284,0,-1.3528,-1.3438,-1.3434,-1.3372,-1.3273,-1.3279,-1.318,-1.3161,-1.3125,-1.306,-1.3083,-1.3021,-1.302,-1.2957,-1.2954,-1.2856,-1.284,-1.2833,-1.2833,-1.2831,-1.2832,-1.2807,-1.2817,-1.2834,-1.2835,-1.2836,-1.2837,0,-1.3365,-1.3359,-1.3252,-1.3215,-1.3203,-1.3132,-1.31,-1.3041,-1.303,-1.2948,-1.2929,-1.2911,-1.2839,-1.2831,-1.2745,-1.2743,-1.2626,-1.2636,-1.2642,-1.2644,-1.2571,-1.2579,-1.2333,-1.2302,-1.2509,-1.2507,-1.2506,0,-1.3255,-1.3188,-1.3144,-1.3104,-1.3079,-1.3012,-1.2972,-1.2975,-1.2932,-1.2877,-1.2825,-1.2755,-1.27,-1.2582,-1.2562,-1.2497,-1.2507,-1.2425,-1.2497,-1.2498,-1.2507,-1.2512,-1.2506,-1.2411,-1.2409,-1.2407,-1.2406,0,-1.3061,-1.3062,-1.3004,-1.2945,-1.2896,-1.2849,-1.2805,-1.277,-1.2768,-1.2718,-1.2646,-1.2603,-1.2518,-1.2449,-1.2386,-1.2362,-1.2383,-1.2384,-1.2363,-1.2361,-1.2368,-1.2365,-1.2605,-1.2389,-1.2391,-1.2392,-1.2393,-1.2393,-1.2922,-1.2865,-1.2826,-1.2761,-1.2729,-1.2688,-1.2632,-1.2616,-1.2556,-1.2489,-1.2494,-1.2414,-1.2373,-1.2291,-1.2262,-1.22,-1.2227,-1.2197,-1.219,-1.2183,-1.2176,-1.2377,-1.2188,-1.2189,-1.2189,-1.219,-1.219,0,-1.2731,-1.2709,-1.2649,-1.2588,-1.2537,-1.2564,-1.2518,-1.2473,-1.2403,-1.2363,-1.231,-1.2228,-1.2162,-1.2137,-1.2072,-1.2027,-1.2036,-1.201,-1.2014,-1.2008,-1.2155,-1.218,-1.2005,-1.2005,-1.2005,-1.2005,-1.2005,-1.2005,-1.2625,-1.253,-1.2527,-1.2417,-1.2395,-1.2319,-1.229,-1.2253,-1.2222,-1.213,-1.2076,-1.2061,-1.2028,-1.1962,-1.1903,-1.1897,-1.1873,-1.1843,-1.1842,-1.1979,-1.1998,-1.2016,-1.2039,-1.1838,-1.1837,-1.1701,-1.17,-1.1699]}]]